User: anonymous   Login
Location: Unspecified
(0.0000°N, 0.0000°E)
Time: 02:36:16
(UTC+00:00)
Language:

OPTUS D1 - Orbit

View from above orbital plane
View from above orbital plane
View from above satellite
View from above satellite

Ground track
Ground track

The orbit data is extracted from the following two-line orbital elements,

1 29495U 06043B   17053.62473949 -.00000120  00000-0  00000+0 0  9995
2 29495   0.0534 283.8610 0003169  57.1497 196.5720  1.00270064 38037
Epoch (UTC): 22 February 2017 14:59:37
Eccentricity: 0.0003169
inclination: 0.0534°
perigee height: 35773 km
apogee height: 35800 km
right ascension of ascending node: 283.8610°
argument of perigee: 57.1497°
revolutions per day: 1.00270064
mean anomaly at epoch: 196.5720°
orbit number at epoch: 3803

The dashed part of the orbit path shows where the satellite is in the earth's shadow,  

DLR